Abbeville, LA

11:23 AM CST on February 19, 2017 (GMT -0600)
Abbeville

Weather History for KIYA - June, 2014

Change the Weather History Date:

Sunday, June 8, 2014

  Actual Average (K7R4) Record (K7R4)
Temperature  
Mean Temperature 89 °F -  
Max Temperature 96 °F 83 °F 95 °F (2003)
Min Temperature 82 °F 76 °F 71 °F (1999)
Cooling Degree Days 24    
Growing Degree Days 39 (Base 50)    
Moisture  
Dew Point 76 °F    
Average Humidity 64    
Maximum Humidity 100    
Minimum Humidity 43    
Precipitation  
Precipitation 0.00 in - - ()
Sea Level Pressure  
Sea Level Pressure 29.94 in    
Wind  
Wind Speed 3 mph (SSW)    
Max Wind Speed 12 mph    
Max Gust Speed 16 mph    
Visibility 10 miles    
Events      
Averages and records for this station are not official NWS values.
T = Trace of Precipitation, MM = Missing Value Source: NWS Daily Summary

Daily Weather History Graph

Daily Weather History Graph

Search for Another Location

Airport or City:

Trip Planner

Search our weather history database for the weather conditions in past years. The results will help you decide how hot, cold, wet, or windy it might be!

Date:

Astronomy

Jun. 08, 2014 Rise Set
Actual Time 6:06 AM CDT 8:08 PM CDT
Civil Twilight 5:39 AM CDT 8:35 PM CDT
Nautical Twilight 5:06 AM CDT 9:08 PM CDT
Astronomical Twilight 4:31 AM CDT 9:44 PM CDT
Moon 3:44 PM CDT (6/8) 2:40 AM CDT (6/8)
Length of Visible Light 14h 56m
Length of Day
14h 01m
Waxing Gibbous, 77% of the Moon is Illuminated
Jun 8
Waxing Gibbous
Jun 12
Full
Jun 19
Last Quarter
Jun 27
New
Jul 5
First Quarter

Hourly Weather History & Observations

Time (CDT) Temp. Heat Index Dew Point Humidity Pressure Visibility Wind Dir Wind Speed Gust Speed Precip Events Conditions
12:15 AM - - - N/A% 29.97 in 10.0 mi Calm Calm - N/A   Clear
12:35 AM - - - N/A% 29.97 in 10.0 mi Calm Calm - N/A   Clear
12:55 AM - - - N/A% 29.97 in 10.0 mi Calm Calm - N/A   Clear
1:15 AM - - - N/A% 29.96 in 10.0 mi Calm Calm - N/A   Clear
1:35 AM - - - N/A% 29.96 in 10.0 mi Calm Calm - N/A   Clear
1:55 AM - - - N/A% 29.95 in 10.0 mi Calm Calm - N/A   Clear
2:15 AM - - - N/A% 29.95 in 10.0 mi South 3.5 mph - N/A   Clear
2:35 AM - - - N/A% 29.96 in 10.0 mi Calm Calm - N/A   Clear
2:55 AM - - - N/A% 29.95 in 10.0 mi Calm Calm - N/A   Clear
3:15 AM - - - N/A% 29.95 in 10.0 mi Calm Calm - N/A   Clear
3:35 AM - - - N/A% 29.95 in 10.0 mi Calm Calm - N/A   Clear
3:55 AM - - - N/A% 29.95 in 10.0 mi Calm Calm - N/A   Clear
4:15 AM - - - N/A% 29.95 in 7.0 mi Calm Calm - N/A   Clear
4:35 AM - - - N/A% 29.95 in 10.0 mi South 3.5 mph - N/A   Clear
4:55 AM - - - N/A% 29.95 in 10.0 mi Calm Calm - N/A   Clear
5:15 AM - - - N/A% 29.95 in 10.0 mi Calm Calm - N/A   Clear
5:35 AM - - - N/A% 29.95 in 10.0 mi Calm Calm - N/A   Clear
5:55 AM - - - N/A% 29.96 in 10.0 mi Calm Calm - N/A   Clear
6:15 AM - - - N/A% 29.96 in 2.5 mi Calm Calm - N/A   Clear
6:35 AM - - - N/A% 29.96 in 4.0 mi Calm Calm - N/A   Haze
6:55 AM - - - N/A% 29.96 in 10.0 mi Calm Calm - N/A   Clear
7:15 AM - - - N/A% 29.97 in 10.0 mi Calm Calm - N/A   Clear
7:35 AM 84.9 °F 106.7 °F 84.9 °F 100% 29.98 in 10.0 mi Calm Calm - N/A   Scattered Clouds
7:55 AM 85.5 °F 109.1 °F 85.5 °F 100% 29.98 in 10.0 mi Calm Calm - N/A   Scattered Clouds
8:15 AM 87.1 °F 111.6 °F 84.9 °F 93% 29.99 in 10.0 mi WSW 5.8 mph - N/A   Scattered Clouds
8:35 AM 88.3 °F 111.6 °F 83.7 °F 86% 29.99 in 10.0 mi SSW 6.9 mph - N/A   Scattered Clouds
8:55 AM 89.2 °F 111.3 °F 82.6 °F 81% 29.99 in 10.0 mi SSW 5.8 mph - N/A   Scattered Clouds
9:35 AM 89.6 °F 106.1 °F 79.3 °F 72% 30.00 in 10.0 mi SW 9.2 mph - N/A   Mostly Cloudy
9:55 AM 89.2 °F 104.3 °F 78.8 °F 71% 30.00 in 10.0 mi SSW 6.9 mph - N/A   Mostly Cloudy
10:15 AM 91.6 °F 105.6 °F 77.4 °F 63% 30.00 in 10.0 mi WSW 9.2 mph - N/A   Scattered Clouds
10:35 AM 92.1 °F 107.1 °F 77.7 °F 63% 30.00 in 10.0 mi SW 6.9 mph - N/A   Scattered Clouds
10:55 AM 93.2 °F 105.0 °F 75.6 °F 56% 30.00 in 10.0 mi SSW 6.9 mph - N/A   Scattered Clouds
11:15 AM 92.7 °F 105.0 °F 75.9 °F 58% 30.00 in 10.0 mi SSW 4.6 mph - N/A   Scattered Clouds
11:35 AM 93.4 °F 103.4 °F 73.9 °F 53% 30.00 in 10.0 mi South 5.8 mph - N/A   Clear
12:15 PM 94.5 °F 105.3 °F 74.3 °F 52% 29.99 in 10.0 mi SSW 8.1 mph - N/A   Scattered Clouds
12:35 PM 95.2 °F 104.9 °F 73.4 °F 49% 29.98 in 10.0 mi SSW 6.9 mph - N/A   Clear
1:15 PM 95.9 °F 106.6 °F 74.1 °F 49% 29.97 in 10.0 mi SW 9.2 mph - N/A   Scattered Clouds
1:35 PM 94.5 °F 104.6 °F 73.6 °F 51% 29.96 in 10.0 mi SSW 10.4 mph - N/A   Mostly Cloudy
1:55 PM 95.7 °F 105.5 °F 73.2 °F 48% 29.96 in 10.0 mi WSW 10.4 mph - N/A   Scattered Clouds
2:15 PM 95.7 °F 104.1 °F 72.1 °F 46% 29.95 in 10.0 mi SW 10.4 mph - N/A   Scattered Clouds
2:35 PM 95.5 °F 103.7 °F 72.0 °F 46% 29.94 in 10.0 mi SW 9.2 mph - N/A   Scattered Clouds
2:55 PM 95.5 °F 103.7 °F 71.8 °F 46% 29.94 in 10.0 mi SSW 8.1 mph - N/A   Scattered Clouds
3:15 PM 95.2 °F 102.9 °F 71.4 °F 46% 29.93 in 10.0 mi WSW 11.5 mph 16.1 mph N/A   Scattered Clouds
3:35 PM 96.3 °F 103.3 °F 70.7 °F 43% 29.92 in 10.0 mi West 9.2 mph - N/A   Scattered Clouds
3:55 PM 96.1 °F 103.5 °F 71.2 °F 44% 29.92 in 10.0 mi SW 6.9 mph - N/A   Clear
4:15 PM 95.4 °F 104.0 °F 72.1 °F 47% 29.91 in 10.0 mi SW 11.5 mph 16.1 mph N/A   Scattered Clouds
4:35 PM 96.3 °F 103.9 °F 71.1 °F 44% 29.90 in 10.0 mi WSW 10.4 mph - N/A   Scattered Clouds
4:55 PM 95.5 °F 102.4 °F 70.5 °F 44% 29.90 in 10.0 mi SW 9.2 mph - N/A   Scattered Clouds
5:15 PM 95.0 °F 103.2 °F 72.0 °F 47% 29.90 in 10.0 mi SW 11.5 mph - N/A   Scattered Clouds
5:35 PM 95.0 °F 102.5 °F 71.4 °F 46% 29.90 in 10.0 mi SW 8.1 mph 16.1 mph N/A   Scattered Clouds
5:55 PM 92.7 °F 98.3 °F 70.0 °F 47% 29.89 in 10.0 mi SW 10.4 mph - N/A   Scattered Clouds
6:15 PM 93.4 °F 100.3 °F 70.9 °F 48% 29.88 in 10.0 mi SW 9.2 mph - N/A   Clear
6:35 PM 92.1 °F 98.8 °F 70.9 °F 50% 29.88 in 10.0 mi SSW 9.2 mph - N/A   Clear
6:55 PM 91.6 °F 98.8 °F 71.8 °F 52% 29.87 in 10.0 mi SSW 9.2 mph - N/A   Clear
7:15 PM 90.0 °F 96.9 °F 71.8 °F 55% 29.87 in 10.0 mi South 6.9 mph - N/A   Clear
7:35 PM 88.7 °F 96.7 °F 73.0 °F 60% 29.87 in 10.0 mi South 9.2 mph - N/A   Clear
7:55 PM 87.8 °F 96.6 °F 74.3 °F 64% 29.87 in 10.0 mi South 5.8 mph - N/A   Clear
8:15 PM 86.0 °F 96.0 °F 75.9 °F 72% 29.87 in 10.0 mi South 6.9 mph - N/A   Clear
8:35 PM 85.8 °F 95.9 °F 76.5 °F 73% 29.87 in 10.0 mi South 6.9 mph - N/A   Clear
8:55 PM 84.6 °F 96.0 °F 78.3 °F 81% 29.87 in 10.0 mi South 6.9 mph - N/A   Clear
9:15 PM 84.2 °F 97.0 °F 79.5 °F 86% 29.88 in 10.0 mi South 5.8 mph - N/A   Clear
9:35 PM 83.8 °F 97.1 °F 80.2 °F 89% 29.89 in 10.0 mi South 4.6 mph - N/A   Clear
9:55 PM 84.0 °F 97.7 °F 80.6 °F 89% 29.90 in 10.0 mi SSW 4.6 mph - N/A   Clear
10:15 PM 84.2 °F 97.8 °F 80.4 °F 88% 29.91 in 10.0 mi Calm Calm - N/A   Clear
10:35 PM 82.8 °F 97.5 °F 82.8 °F 100% 29.92 in 10.0 mi Calm Calm - N/A   Clear
10:55 PM - - - N/A% 29.93 in 10.0 mi Calm Calm - N/A   Clear
11:15 PM - - - N/A% 29.93 in 10.0 mi Calm Calm - N/A   Clear
11:35 PM - - - N/A% 29.94 in 10.0 mi Calm Calm - N/A   Clear
11:55 PM 83.5 °F 100.5 °F 83.5 °F 100% 29.94 in 10.0 mi SSW 3.5 mph - N/A   Clear